Memphis, TN

1:59 AM CST on January 21, 2018 (GMT -0600)
Memphis International

Weather History for KMEM - December, 2012

Change the Weather History Date:

Saturday, December 29, 2012

  Actual Average Record
Temperature  
Mean Temperature 31 °F 41 °F  
Max Temperature 36 °F 50 °F 72 °F (1889)
Min Temperature 25 °F 33 °F 3 °F (1880)
Degree Days  
Heating Degree Days 34 24  
Month to date heating degree days 414 619  
Since 1 July heating degree days 971 1118  
Cooling Degree Days 0 0  
Month to date cooling degree days 4 0  
Year to date cooling degree days 2617 2256  
Moisture  
Dew Point 25 °F    
Average Humidity 77    
Maximum Humidity 92    
Minimum Humidity 61    
Precipitation  
Precipitation 0.00 in 0.16 in 3.05 in (1884)
Month to date precipitation 3.29 5.42  
Year to date precipitation 36.46 53.36  
Snow  
Snow 0.00 in 0.10 in 1.30 in (1915)
Month to date snowfall 0.9 0.2  
Since 1 July snowfall 0.9 0.2  
Snow Depth 0.00 in    
Sea Level Pressure  
Sea Level Pressure 30.20 in    
Wind  
Wind Speed 10 mph (NW)    
Max Wind Speed 22 mph    
Max Gust Speed 26 mph    
Visibility 9 miles    
Events      
T = Trace of Precipitation, MM = Missing Value Source: NWS Daily Summary

Daily Weather History Graph

Daily Weather History Graph

Search for Another Location

Airport or City:

Trip Planner

Search our weather history database for the weather conditions in past years. The results will help you decide how hot, cold, wet, or windy it might be!

Date:

Astronomy

Dec. 29, 2012 Rise Set
Actual Time 7:07 AM CST 4:57 PM CST
Civil Twilight 6:39 AM CST 5:25 PM CST
Nautical Twilight 6:07 AM CST 5:56 PM CST
Astronomical Twilight 5:36 AM CST 6:27 PM CST
Moon 6:26 PM CST (12/29) 7:44 AM CST (12/29)
Length of Visible Light 10h 46m
Length of Day
9h 49m
Full, 98% of the Moon is Illuminated
Dec 29
Full
Jan 4
Last Quarter
Jan 11
New
Jan 18
First Quarter
Jan 26
Full

Hourly Weather History & Observations

Time (CST) Temp. Windchill Dew Point Humidity Pressure Visibility Wind Dir Wind Speed Gust Speed Precip Events Conditions
12:54 AM 36.0 °F 27.1 °F 33.1 °F 89% 29.96 in 9.0 mi NW 13.8 mph - N/A   Overcast
1:07 AM 35.6 °F 27.5 °F 33.8 °F 93% 29.96 in 9.0 mi WNW 11.5 mph - N/A   Overcast
1:54 AM 36.0 °F 27.1 °F 33.1 °F 89% 29.99 in 8.0 mi NW 13.8 mph - N/A   Overcast
2:51 AM 35.6 °F 27.1 °F 32.0 °F 87% 30.01 in 8.0 mi WNW 12.7 mph - N/A   Overcast
2:54 AM 36.0 °F 28.5 °F 32.0 °F 86% 30.01 in 8.0 mi NW 10.4 mph 19.6 mph N/A   Overcast
3:13 AM 35.6 °F 28.0 °F 30.2 °F 81% 30.01 in 8.0 mi NW 10.4 mph - N/A   Overcast
3:54 AM 36.0 °F 28.5 °F 30.0 °F 79% 30.03 in 8.0 mi NW 10.4 mph 18.4 mph N/A   Overcast
4:01 AM 35.6 °F 27.1 °F 30.2 °F 81% 30.03 in 8.0 mi WNW 12.7 mph - N/A   Overcast
4:54 AM 35.1 °F 27.9 °F 28.9 °F 78% 30.05 in 9.0 mi WNW 9.2 mph - N/A   Overcast
5:23 AM 35.6 °F 28.6 °F 28.4 °F 75% 30.06 in 9.0 mi WNW 9.2 mph - N/A   Overcast
5:54 AM 35.1 °F 25.2 °F 28.9 °F 78% 30.08 in 8.0 mi WNW 16.1 mph 21.9 mph N/A   Overcast
6:54 AM 35.1 °F 26.9 °F 28.0 °F 76% 30.11 in 9.0 mi WNW 11.5 mph - N/A   Overcast
7:50 AM 33.8 °F 23.2 °F 24.8 °F 70% 30.12 in 10.0 mi NW 17.3 mph 21.9 mph N/A   Overcast
7:54 AM 34.0 °F 24.6 °F 24.1 °F 67% 30.13 in 10.0 mi NW 13.8 mph 21.9 mph N/A   Overcast
8:31 AM 33.8 °F 24.8 °F 24.8 °F 70% 30.15 in 9.0 mi NW 12.7 mph - N/A   Overcast
8:54 AM 34.0 °F 25.0 °F 24.1 °F 67% 30.17 in 9.0 mi NNW 12.7 mph 21.9 mph N/A   Overcast
9:27 AM 33.8 °F 24.8 °F 24.8 °F 70% 30.17 in 9.0 mi NW 12.7 mph - N/A   Overcast
9:54 AM 34.0 °F 23.8 °F 24.1 °F 67% 30.19 in 9.0 mi NNW 16.1 mph 25.3 mph N/A   Overcast
10:13 AM 33.8 °F 23.5 °F 24.8 °F 70% 30.20 in 9.0 mi WNW 16.1 mph 20.7 mph N/A   Overcast
10:42 AM 33.8 °F 24.8 °F 23.0 °F 65% 30.21 in 10.0 mi NW 12.7 mph 23.0 mph N/A   Overcast
10:54 AM 33.1 °F 22.2 °F 23.0 °F 66% 30.21 in 10.0 mi NW 17.3 mph 24.2 mph N/A   Overcast
11:21 AM 33.8 °F 24.8 °F 23.0 °F 65% 30.21 in 10.0 mi NW 12.7 mph 21.9 mph N/A   Overcast
11:54 AM 33.1 °F 21.5 °F 23.0 °F 66% 30.22 in 9.0 mi NW 19.6 mph 24.2 mph N/A   Overcast
12:54 PM 33.1 °F 21.9 °F 23.0 °F 66% 30.22 in 9.0 mi WNW 18.4 mph 23.0 mph N/A   Overcast
1:10 PM 35.6 °F 27.1 °F 23.0 °F 60% 30.22 in 9.0 mi NNW 12.7 mph - N/A   Mostly Cloudy
1:36 PM 35.6 °F 26.6 °F 23.0 °F 60% 30.22 in 8.0 mi NW 13.8 mph - N/A   Mostly Cloudy
1:54 PM 34.0 °F 23.8 °F 21.9 °F 61% 30.24 in 9.0 mi NW 16.1 mph - N/A   Overcast
2:54 PM 33.1 °F 24.4 °F 21.9 °F 64% 30.27 in 9.0 mi NNW 11.5 mph - N/A   Overcast
3:33 PM 33.8 °F 24.3 °F 21.2 °F 60% 30.28 in 9.0 mi NW 13.8 mph - N/A   Mostly Cloudy
3:49 PM 33.8 °F 24.8 °F 21.2 °F 60% 30.28 in 9.0 mi NW 12.7 mph 18.4 mph N/A   Scattered Clouds
3:54 PM 34.0 °F 25.5 °F 21.9 °F 61% 30.29 in 9.0 mi NNW 11.5 mph 18.4 mph N/A   Scattered Clouds
4:54 PM 32.0 °F 24.8 °F 21.2 °F 64% 30.32 in 8.0 mi NNW 8.1 mph - N/A   Scattered Clouds
5:54 PM 32.0 °F 25.6 °F 21.9 °F 66% 30.35 in 10.0 mi NW 6.9 mph - N/A   Scattered Clouds
6:54 PM 30.0 °F 25.2 °F 21.9 °F 72% 30.37 in 9.0 mi NNW 4.6 mph - N/A   Partly Cloudy
7:54 PM 30.0 °F 25.2 °F 21.9 °F 72% 30.40 in 9.0 mi NW 4.6 mph - N/A   Clear
8:54 PM 30.0 °F - 21.9 °F 72% 30.41 in 9.0 mi Calm Calm - N/A   Clear
9:54 PM 26.1 °F - 21.0 °F 81% 30.43 in 8.0 mi Calm Calm - N/A   Clear
10:54 PM 25.0 °F - 21.0 °F 85% 30.44 in 8.0 mi Calm Calm - N/A   Clear
11:54 PM 25.0 °F - 19.9 °F 81% 30.43 in 8.0 mi Calm Calm - N/A   Clear